Wind_Speed
12 12 14 16 17 17 19 15 11 8 13 18 20 20 16 11 8 6 5 6 7 10 12 12 13 12 13 12 11 13 15 15 15 14 16 17 18 19 19 20 21 21 21
7 12 15 19 23 21 20 14 11 12 12 12 15 18 21 19 14 9 5 6 8 9 13 14 15 15 15 15 14 14 15 15 14 15 17 18 18 20 22 22 22 22 23
10 17 20 24 16 15 21 5 11 15 20 28 21 11 19 19 19 14 10 9 8 10 12 12 14 17 17 17 18 18 19 20 20 21 23 24 25 25 26 27 28 28 29
13 19 22 21 15 19 11 12 17 19 17 30 23 18 21 14 14 13 11 12 11 9 12 14 14 17 19 20 22 23 24 25 26 27 28 29 30 30 32 33 33 33 34
13 20 21 14 19 22 12 13 14 16 20 22 14 9 15 13 9 11 9 8 11 12 14 16 17 18 21 22 22 23 24 26 28 29 31 32 33 34 35 38 39 41 40
15 17 18 17 21 19 16 15 16 17 17 14 11 13 10 5 1 5 7 9 13 13 15 18 18 19 22 23 24 26 29 30 32 34 36 37 37 38 38 40 43 44 45
15 17 19 15 17 13 15 17 19 18 17 16 11 6 3 4 7 9 10 12 14 16 18 19 19 20 24 27 29 32 33 34 36 39 42 43 44 45 45 47 47 48 48
19 19 20 18 18 20 19 20 20 20 21 18 17 14 7 9 10 12 14 14 15 15 18 22 24 26 29 33 35 36 37 38 42 43 44 45 47 48 49 50 51 51 52
23 21 22 21 19 22 23 25 25 25 24 18 15 15 15 13 16 18 17 18 18 21 27 33 34 33 32 33 35 37 40 40 40 43 45 47 49 51 52 53 53 54 54
24 23 21 20 22 22 22 24 26 27 26 21 17 18 17 19 22 21 21 21 26 29 31 29 29 32 34 35 36 38 42 44 45 47 47 49 51 53 54 56 57 57 57
27 26 24 22 24 24 26 25 27 28 25 22 19 21 22 22 21 19 21 27 30 31 30 32 34 33 33 35 38 40 42 42 42 42 42 44 46 48 49 48 48 47 46
32 30 29 22 26 26 27 27 26 26 25 25 24 22 25 26 23 24 28 29 29 29 31 30 30 32 35 37 39 39 40 38 37 37 40 42 45 46 47 47 45 45 44
32 33 23 27 27 23 25 27 25 29 28 29 27 28 27 26 25 30 30 30 30 32 31 31 33 36 37 38 38 36 36 37 38 40 43 47 48 48 47 46 45 45 44
30 31 32 34 26 22 24 27 28 32 32 33 30 30 29 29 28 30 30 31 31 30 31 34 37 38 38 37 37 36 36 38 40 43 46 50 51 49 48 48 49 48 44
35 35 30 24 24 24 24 26 29 29 25 24 21 20 23 26 26 27 30 30 30 32 34 37 36 35 35 36 36 37 42 41 43 48 51 51 49 47 47 46 43 41 40
35 36 23 21 25 24 24 28 30 25 23 22 21 16 19 22 25 26 27 27 29 33 35 34 34 35 35 35 37 39 39 42 49 50 51 46 42 40 39 36 33 33 32
20 12 15 18 22 24 26 28 26 23 22 19 21 19 19 21 23 25 24 27 30 32 32 32 33 34 33 34 36 40 43 45 47 49 46 41 38 36 35 34 33 32 30
12 13 18 22 24 23 26 28 22 15 19 22 21 19 19 20 20 21 25 29 31 30 30 31 34 34 34 36 39 42 44 45 45 43 40 36 34 32 32 31 31 30 30
21 22 25 27 28 28 25 23 23 18 18 19 18 17 18 21 22 25 27 30 32 31 32 33 36 37 37 38 40 41 39 39 37 37 36 33 31 30 30 29 29 28 25
27 28 28 25 20 18 20 19 17 17 18 16 16 20 21 21 24 27 30 32 29 29 31 33 34 33 34 36 37 37 36 36 33 33 32 30 28 29 28 27 25 24 24
24 25 18 14 14 16 18 18 19 18 17 17 18 20 21 23 24 27 30 29 29 29 31 31 32 34 35 36 36 36 35 31 31 31 31 30 29 27 27 25 23 23 23
18 16 14 15 18 19 19 19 18 17 17 18 19 19 21 24 25 27 30 29 29 30 32 33 34 34 33 33 33 35 35 31 29 30 29 28 28 28 28 28 28 28 29
16 17 17 18 18 18 18 16 17 17 18 17 17 19 21 22 24 26 29 29 30 30 31 32 34 31 30 32 33 37 35 30 28 28 27 27 29 30 29 30 30 30 30
17 18 17 18 17 17 17 18 17 18 18 17 19 20 21 24 26 27 28 28 30 29 32 33 35 30 30 32 33 34 33 30 29 28 28 29 31 31 32 32 31 32 31
19 19 17 16 16 18 18 17 18 19 21 21 20 21 24 26 27 28 28 28 29 31 33 33 35 27 33 31 32 33 32 29 28 29 31 32 33 33 33 31 31 32 32
18 17 15 15 17 17 17 18 18 20 20 21 21 24 26 27 27 28 27 28 30 33 34 37 28 32 30 32 33 33 31 28 28 30 32 33 33 32 31 30 31 31 32
Wind_Direction
348 334 320 309 295 288 288 272 280 276 267 262 267 263 259 239 249 274 300 316 317 311 310 313 309 305 301 305 298 286 283 284 286 282 279 280 284 283 279 277 276 272 269
344 328 321 316 313 277 269 269 261 289 294 269 262 260 261 251 245 254 248 282 303 309 312 311 308 300 301 304 297 293 290 286 285 281 280 281 279 281 283 281 277 275 273
308 319 322 325 309 298 279 289 344 340 285 300 284 271 263 257 250 254 272 305 273 294 308 313 313 311 307 305 300 296 294 293 291 287 288 287 285 283 280 281 282 280 278
301 316 326 321 295 287 327 8 7 3 336 241 275 259 293 258 249 251 292 305 286 296 306 307 304 300 297 295 292 292 291 289 289 289 288 288 288 289 288 286 284 282 281
290 308 315 317 316 313 18 15 4 0 9 17 349 298 248 269 244 270 290 300 303 312 309 303 299 301 300 302 304 305 302 300 298 296 292 290 287 286 285 285 284 283 282
289 310 318 310 318 332 2 3 358 4 356 4 29 38 27 46 280 282 295 303 310 309 310 305 307 311 307 307 305 302 299 297 295 292 290 288 286 284 282 281 279 279 278
287 304 308 328 329 327 336 338 331 340 350 343 340 339 326 279 273 279 280 289 299 303 305 302 307 312 306 304 300 297 296 296 296 295 292 289 287 285 282 279 277 276 276
281 291 301 308 310 313 322 328 327 334 335 331 321 313 303 287 279 279 285 296 302 306 307 307 310 309 309 307 305 302 297 297 299 299 297 294 291 290 288 286 283 280 277
271 276 283 288 296 300 307 312 324 334 330 318 302 300 294 285 283 287 303 307 306 312 312 308 305 302 301 301 300 298 298 299 299 298 296 294 292 290 288 286 283 280 278
259 264 273 284 289 296 312 316 310 316 322 317 301 279 273 272 278 288 298 297 300 305 304 303 304 306 306 306 306 306 306 304 302 301 300 299 297 294 291 288 286 285 284
255 260 265 270 282 291 297 308 315 303 305 313 302 291 283 283 286 296 299 304 306 308 306 309 308 308 308 307 306 306 306 308 307 306 305 306 306 305 305 302 300 297 293
254 258 261 270 277 288 298 298 303 318 303 307 302 290 287 292 297 304 304 302 304 300 301 305 306 308 309 310 311 312 313 311 309 312 315 316 314 309 306 304 302 300 296
249 257 270 270 272 286 297 299 303 309 304 298 302 289 284 287 294 300 302 305 304 307 312 314 314 315 315 314 312 310 308 310 313 316 318 317 313 307 301 298 298 295 294
247 259 264 261 276 284 300 304 307 306 309 308 293 294 278 281 290 301 304 306 310 310 312 314 316 314 314 313 312 310 313 316 316 315 315 313 309 306 303 301 299 297 294
241 251 256 268 282 287 295 300 299 301 302 303 293 292 290 295 296 298 304 308 310 312 313 315 314 313 314 312 308 307 314 314 313 315 315 314 311 309 305 304 302 298 296
226 242 252 274 282 293 292 300 300 296 277 297 294 286 293 293 293 298 304 302 304 310 310 308 310 314 313 310 311 313 312 313 315 314 316 316 314 313 313 313 314 311 307
235 274 264 273 285 295 292 300 289 297 280 276 290 292 293 289 294 297 296 302 308 307 307 314 318 318 311 308 310 310 311 313 316 318 319 318 318 318 317 317 316 313 310
300 287 283 287 290 294 298 302 306 280 275 275 288 293 293 297 295 300 303 307 310 313 319 320 319 318 315 315 316 318 316 318 321 323 324 324 324 322 320 318 318 316 314
284 285 285 288 292 291 291 290 283 269 274 280 286 295 307 308 306 306 310 312 317 318 321 324 324 322 319 319 317 317 320 320 321 324 328 332 329 326 322 321 321 319 320
282 288 286 294 291 281 285 283 272 274 281 288 304 309 307 308 308 310 314 317 317 320 323 326 321 317 318 319 319 322 323 321 320 326 332 334 331 328 326 324 322 322 324
293 294 280 279 290 290 285 278 281 289 298 311 307 305 304 306 305 310 318 313 320 322 322 322 319 317 317 319 325 328 326 325 324 326 328 327 327 328 326 323 320 321 321
288 277 280 279 279 280 281 280 285 299 304 300 298 300 301 300 307 316 317 320 323 322 323 324 323 322 321 324 329 332 329 327 326 328 329 328 329 329 328 326 324 321 319
271 265 265 269 269 277 279 283 291 292 295 295 295 292 293 299 308 318 323 323 321 320 323 325 325 326 324 323 327 331 328 325 326 326 327 328 328 327 326 326 325 325 323
261 266 267 273 279 279 284 290 297 307 303 303 297 296 299 307 314 322 324 321 323 323 327 322 325 320 322 323 325 327 327 325 322 320 321 321 321 323 324 325 326 325 323
265 265 271 272 276 285 289 296 304 306 308 301 297 302 307 309 316 323 324 322 323 324 327 324 326 321 326 327 327 326 327 322 318 318 317 318 319 321 322 324 325 323 321
264 264 264 274 285 289 295 297 309 306 295 298 305 308 308 309 317 322 322 322 326 331 325 329 321 322 323 328 327 324 324 324 321 319 323 324 325 325 325 325 324 323 322
Height
5901 5898 5896 5895 5894 5892 5891 5886 5885 5883 5882 5882 5881 5881 5882 5881 5881 5881 5880 5879 5879 5878 5877 5874 5872 5871 5869 5868 5866 5864 5863 5861 5861 5859 5857 5857 5856 5854 5853 5851 5849 5849 5848
5900 5897 5894 5891 5887 5884 5882 5879 5879 5878 5877 5875 5875 5876 5877 5877 5876 5876 5876 5876 5875 5874 5873 5870 5868 5866 5864 5864 5862 5860 5859 5857 5856 5856 5854 5852 5850 5848 5847 5845 5844 5843 5842
5898 5896 5892 5888 5882 5872 5869 5878 5874 5870 5866 5867 5868 5869 5870 5872 5872 5873 5872 5872 5871 5869 5868 5866 5865 5865 5862 5860 5859 5857 5856 5854 5851 5850 5847 5846 5844 5842 5840 5838 5837 5836 5835
5895 5893 5890 5884 5880 5876 5873 5872 5873 5870 5847 5836 5860 5863 5865 5866 5868 5869 5869 5867 5866 5865 5864 5862 5859 5859 5858 5855 5853 5851 5849 5848 5845 5843 5841 5839 5837 5833 5831 5829 5828 5827 5825
5893 5891 5887 5884 5874 5871 5865 5872 5872 5870 5868 5861 5857 5856 5860 5861 5863 5864 5864 5864 5863 5861 5859 5857 5855 5852 5852 5849 5846 5843 5842 5840 5837 5834 5833 5830 5828 5824 5821 5818 5816 5814 5812
5890 5890 5885 5884 5882 5877 5874 5875 5873 5870 5867 5865 5860 5859 5859 5860 5862 5862 5861 5859 5858 5856 5853 5852 5850 5846 5846 5843 5839 5836 5835 5832 5828 5824 5821 5818 5816 5812 5809 5807 5804 5801 5799
5888 5888 5884 5882 5880 5879 5875 5873 5872 5870 5868 5865 5862 5860 5859 5858 5858 5857 5856 5855 5853 5850 5848 5846 5843 5840 5838 5834 5831 5829 5826 5822 5818 5814 5811 5807 5803 5800 5796 5793 5791 5787 5785
5885 5884 5880 5879 5877 5875 5872 5870 5870 5868 5866 5863 5862 5860 5856 5855 5854 5854 5852 5849 5847 5845 5841 5837 5836 5833 5828 5825 5822 5819 5816 5811 5807 5804 5800 5795 5791 5787 5783 5779 5775 5771 5769
5880 5879 5876 5874 5872 5869 5867 5865 5863 5861 5860 5859 5857 5855 5852 5851 5850 5847 5844 5842 5838 5836 5833 5830 5828 5824 5820 5817 5814 5809 5804 5799 5795 5791 5787 5782 5776 5771 5768 5763 5758 5755 5751
5873 5872 5872 5870 5868 5866 5863 5860 5858 5857 5855 5852 5851 5850 5847 5845 5843 5841 5839 5836 5834 5831 5827 5824 5819 5814 5810 5807 5803 5798 5793 5788 5783 5777 5771 5766 5760 5755 5750 5745 5741 5737 5734
5867 5865 5864 5863 5863 5861 5859 5857 5853 5851 5849 5848 5846 5845 5843 5840 5838 5834 5831 5829 5826 5822 5818 5813 5810 5806 5802 5799 5794 5789 5783 5777 5770 5765 5759 5753 5747 5741 5735 5729 5723 5719 5716
5859 5861 5858 5860 5858 5856 5854 5851 5848 5845 5844 5843 5841 5838 5835 5832 5830 5828 5825 5822 5818 5816 5813 5809 5804 5799 5794 5789 5782 5777 5771 5766 5760 5754 5748 5741 5735 5729 5722 5716 5711 5707 5703
5852 5851 5850 5852 5851 5851 5848 5845 5843 5840 5838 5836 5833 5830 5827 5825 5824 5822 5817 5813 5811 5808 5803 5798 5794 5788 5782 5777 5772 5767 5761 5756 5750 5744 5738 5730 5723 5716 5710 5705 5699 5694 5690
5845 5846 5845 5846 5846 5844 5841 5839 5836 5833 5830 5825 5823 5822 5820 5818 5816 5813 5809 5807 5803 5799 5794 5789 5784 5778 5773 5766 5761 5756 5751 5745 5740 5734 5727 5720 5711 5703 5697 5691 5686 5680 5676
5836 5835 5838 5840 5840 5837 5835 5833 5829 5826 5823 5820 5817 5815 5813 5811 5809 5806 5803 5799 5795 5792 5786 5781 5776 5770 5764 5758 5753 5747 5742 5737 5730 5723 5715 5706 5698 5691 5683 5676 5670 5666 5661
5823 5827 5833 5832 5831 5830 5828 5825 5822 5820 5817 5816 5813 5809 5807 5805 5803 5800 5798 5794 5790 5785 5780 5774 5769 5763 5757 5751 5745 5739 5734 5728 5721 5712 5703 5694 5686 5679 5672 5666 5660 5655 5651
5820 5822 5824 5824 5823 5822 5820 5818 5815 5813 5811 5810 5808 5806 5803 5801 5798 5795 5792 5788 5783 5779 5773 5767 5760 5754 5749 5743 5737 5732 5726 5718 5710 5701 5692 5684 5677 5670 5664 5658 5653 5647 5642
5810 5813 5814 5815 5816 5815 5813 5810 5806 5806 5805 5802 5800 5798 5795 5794 5792 5789 5786 5781 5776 5770 5764 5757 5751 5745 5739 5733 5727 5721 5714 5707 5699 5691 5683 5676 5669 5663 5658 5652 5646 5641 5636
5805 5808 5808 5809 5808 5805 5805 5802 5800 5799 5797 5796 5794 5792 5789 5787 5784 5781 5776 5770 5765 5760 5754 5748 5741 5735 5730 5724 5718 5712 5705 5698 5691 5685 5677 5669 5663 5658 5651 5645 5639 5634 5629
5801 5800 5800 5799 5797 5796 5797 5796 5794 5793 5792 5790 5787 5784 5782 5780 5777 5773 5769 5763 5757 5752 5746 5741 5735 5729 5724 5718 5711 5704 5698 5691 5685 5679 5671 5665 5658 5653 5647 5641 5636 5630 5625
5792 5792 5792 5791 5791 5791 5790 5789 5788 5786 5786 5784 5780 5777 5775 5772 5770 5767 5762 5756 5751 5746 5740 5734 5728 5722 5716 5710 5703 5697 5690 5684 5678 5672 5666 5660 5654 5648 5643 5637 5632 5627 5622
5785 5786 5788 5787 5785 5785 5786 5785 5783 5781 5780 5778 5774 5772 5770 5767 5763 5760 5755 5750 5745 5739 5734 5728 5722 5715 5708 5702 5696 5690 5684 5678 5672 5666 5661 5656 5650 5644 5639 5633 5626 5621 5616
5782 5783 5783 5782 5780 5780 5780 5779 5778 5777 5775 5773 5770 5768 5765 5761 5758 5753 5748 5743 5739 5733 5726 5720 5714 5707 5701 5696 5691 5684 5678 5673 5667 5662 5656 5651 5645 5639 5633 5627 5621 5615 5609
5777 5777 5777 5776 5775 5774 5773 5773 5772 5769 5768 5766 5763 5760 5757 5754 5750 5745 5741 5736 5730 5725 5719 5713 5707 5701 5696 5690 5685 5678 5672 5667 5662 5656 5651 5646 5640 5634 5628 5622 5615 5609 5603
5771 5772 5771 5770 5768 5768 5766 5766 5765 5763 5760 5759 5756 5753 5750 5747 5742 5738 5734 5729 5723 5718 5714 5708 5701 5695 5690 5685 5678 5673 5667 5661 5656 5651 5645 5640 5634 5628 5621 5615 5609 5603 5597
5765 5766 5765 5764 5763 5762 5762 5761 5760 5758 5755 5751 5748 5745 5743 5740 5735 5731 5727 5723 5717 5711 5707 5701 5694 5689 5684 5679 5673 5668 5662 5655 5650 5645 5639 5633 5627 5621 5615 5609 5603 5597 5591